Regional Weather Roundup
Issued by NWS Kansas City/Pleasant Hill, MO

Home | Current Version | Previous Version | Graphics & Text | Print | Product List | Glossary Off
Versions: 1 2 3 4 5 6 7 8 9 10 11 12 13 14 15 16 17 18 19 20 21 22 23 24 25 26 27 28 29 30 31 32 33 34 35 36 37 38 39 40 41 42 43 44 45 46 47 48 49 50

077
ASUS43 KEAX 202210
RWREAX

WEATHER ROUNDUP FOR EASTERN KANSAS AND NORTHWEST MISSOURI
NATIONAL WEATHER SERVICE KANSAS CITY/PLEASANT HILL MO
400 PM CST MON FEB 20 2017

KSZ040-057-103>105-MOZ028-029-037-043-202300-
...KANSAS CITY METROPOLITAN AREA...

CITY           SKY/WX    TMP DP  RH WIND       PRES   REMARKS
K.C. INTL      CLOUDY    65  51  60 SW18G25   29.83R
K.C. DOWNTOWN  CLOUDY    68  51  54 SW13      29.83R
LEES SUMMIT    CLOUDY    67  51  56 SW10      29.84S
OLATHE - IXD   CLOUDY    66  51  58 S12       29.84S
OLATHE - OJC   PTSUNNY   65  51  60 SW13G18   29.84S
LAWRENCE       CLOUDY    65  53  65 S13       29.83R

$$

MOZ001>008-011>017-020>025-030>033-038>040-044>046-053-054-202300-
...NORTHERN AND CENTRAL MISSOURI...

CITY           SKY/WX    TMP DP  RH WIND       PRES   REMARKS
ST. JOSEPH     CLOUDY    66  53  63 SW15      29.82R
WARRENSBURG    CLOUDY    64  55  72 SW8       29.85F
WHITEMAN AFB   CLOUDY    65  64  96 SW7       29.84F
CLINTON        CLOUDY    66  59  77 CALM      29.87R
SEDALIA        CLOUDY    68  59  73 S13       29.88S
WARSAW         NOT AVBL
CHILLICOTHE      N/A     66  58  75 S8        29.85R
KIRKSVILLE     CLOUDY    65  58  78 SW12      29.87S

$$

MOZ041-047>049-056>058-063>065-088>090-097-202300-
...EASTERN AND SOUTHERN MISSOURI...

CITY           SKY/WX    TMP DP  RH WIND       PRES   REMARKS
ST. LOUIS INTL PTSUNNY   76  52  43 S20       29.91F
SPIRIT OF STL  CLOUDY    76  51  41 S10G17    29.88F
COLUMBIA       CLOUDY    74  57  55 SW13G21   29.86S
JEFFERSON CITY CLOUDY    75  57  53 S18       29.85F
ROLLA          PTSUNNY   73  56  54 S18G28    29.88R
OSAGE BEACH    CLOUDY    73  58  59 S12       29.87F
SPRINGFIELD    LGT RAIN  67  55  65 SW7       29.90R
BRANSON        CLOUDY    66  59  77 S8        29.92R
JOPLIN         CLOUDY    64  57  78 SW13      29.92R
WEST PLAINS    CLOUDY    73  58  59 S14G22    29.93S

$$

IAZ060-094-KSZ022-034>040-054-083-096-NEZ052-066-093-202300-
...KANSAS...SOUTHEAST NEBRASKA AND IOWA...

CITY           SKY/WX    TMP DP  RH WIND       PRES   REMARKS
TOPEKA         CLOUDY    63  53  70 SW8       29.82R
MANHATTAN      CLOUDY    64  53  67 S13       29.81R
EMPORIA        PTSUNNY   60  52  74 S13       29.85R
CHANUTE        CLOUDY    64  52  64 SW20G25   29.88R
WICHITA        CLOUDY    62  53  72 SW13      29.85R
OMAHA          CLOUDY    60  55  83 S7        29.77R
LINCOLN        CLOUDY    64  47  53 NW20      29.80R
FALLS CITY     CLOUDY    62  55  77 SW8       29.81R
LAMONI         CLOUDY    61  58  90 S9        29.81R
DES MOINES     CLOUDY    61  58  90 SW8       29.78S

$$





USA.gov is the U.S. government's official web portal to all federal, state and local government web resources and services.